Vertical_Velocity
-1 1 -0 0 0 -0 -2 1 0 1 1 1 0 -0 -1 -0 -1 -1 0 1 -0 -1 -1 -0 -1 -0 1 1 1 2 3 3 2 2 1 1 -0 0 1 -0 -1 -1 -3
-2 -0 1 1 0 -0 -0 -0 0 2 2 1 -0 -0 -0 0 1 1 1 -0 -1 -1 -1 -1 -1 -1 -1 -0 0 1 -0 1 -0 0 0 0 -1 -0 -1 -1 0 -3 -2
-1 -1 -1 -1 1 0 1 1 0 1 2 1 -0 -0 -0 0 1 1 1 0 -0 -1 -1 -2 -1 -1 -1 -1 -0 -0 0 0 -1 -0 0 -0 -2 -2 -1 -1 -2 -1 -1
0 -0 -0 -0 -0 -0 2 -0 2 1 1 2 -0 1 0 1 1 0 0 -1 -1 -1 -1 -2 -0 -1 -1 -1 -2 -2 -0 -0 -0 -0 -2 -1 -0 -1 -0 0 -1 -1 -1
0 1 -0 1 -0 -1 2 -1 2 2 2 1 1 0 0 1 -0 -0 0 -0 -1 -1 -1 -1 -1 -1 -1 -1 -1 -1 -1 -1 -1 -1 -2 -1 -2 -1 -1 -2 -3 -1 -1
-0 1 -0 -0 0 -1 2 -0 1 1 2 2 1 1 -1 0 -0 1 1 -0 -1 -1 -0 -1 -1 -0 -1 -1 -1 -1 -1 -0 -1 -1 -1 -1 -1 -2 1 0 0 -1 -0
-1 1 1 -0 -0 -1 1 1 0 1 2 1 1 1 1 -1 0 0 1 0 0 -1 -0 0 -1 -1 -1 -1 -1 -1 -1 -0 -1 -0 -0 -1 -0 -0 -0 -1 -0 -1 -0
-1 2 1 1 -1 -0 -0 1 -0 2 2 1 2 1 1 0 -0 -0 1 1 1 -1 -1 -0 -0 -1 -1 -1 -0 0 -1 -1 -0 1 -0 0 -1 -0 -0 -1 -1 -1 -2
-1 -0 1 2 1 -0 1 -0 1 1 2 3 1 0 1 -0 -0 0 -0 -0 0 -0 -1 -1 -0 -1 -1 -1 -1 0 -0 -1 -0 -1 0 0 0 0 -0 -0 -1 -1 -1
-1 1 -1 -0 2 0 -0 0 2 1 3 3 2 2 2 1 1 -0 1 -0 0 -1 -0 -1 -0 -0 -1 0 -1 -0 -0 -1 -1 -1 -1 -0 1 1 0 -2 -0 1 1
1 2 -0 -1 2 -1 -1 0 -0 1 3 3 3 2 1 2 1 1 0 -0 -1 -2 -1 -0 0 1 0 -1 -1 -1 -1 -1 0 -1 -0 0 -1 -1 -2 -0 -3 -1 -1
1 3 4 1 1 0 1 -0 1 2 -0 1 2 1 1 1 0 1 0 -0 0 -1 -0 -1 -0 1 0 -0 -0 -1 -0 -1 -1 -1 -2 -1 -1 1 -1 -1 -1 -2 -1
1 -1 0 -0 -1 3 0 1 -0 2 1 1 1 -0 0 1 -0 0 0 1 1 0 -1 -1 -2 0 -1 -0 -1 -3 -1 -2 -2 -2 -2 -1 -1 -1 -0 -1 -1 -0 -0
-2 -3 -2 -1 1 -3 2 2 3 1 3 -1 1 2 -1 0 -1 0 -1 1 2 -2 1 0 -1 1 -0 -1 -1 -1 -1 -2 -0 -1 -1 -1 -0 -0 -1 -1 0 -0 -1
-1 -2 -4 -2 -1 -0 0 3 3 3 3 2 0 3 -1 0 -1 -0 1 1 1 1 1 0 -1 -0 -1 -2 -1 -0 -0 -0 -1 -0 -1 -2 -2 -0 0 -1 -0 -0 -1
-2 18 -6 -4 -2 -0 0 2 2 2 5 5 2 3 2 0 0 2 -1 0 1 0 2 -1 -1 -1 0 -1 -0 -0 1 0 -0 -0 -0 -1 -1 -2 -2 -1 -2 -1 -0
36 10 2 -2 -2 1 -1 -0 3 2 3 4 3 3 3 1 -0 3 -1 -2 2 -0 1 -0 -0 -1 1 -1 -1 0 -0 -0 -0 -1 -1 -2 -0 -1 -1 -0 0 0 -0
16 -8 1 5 4 2 2 0 2 3 1 3 4 4 3 2 -1 -1 1 2 1 1 0 -1 -1 -1 1 -1 -1 -2 -1 -1 -0 -1 -2 -0 -3 -0 -1 -2 -2 -0 -1
6 20 46 -5 9 1 -2 -1 0 2 4 5 3 3 3 0 0 0 -2 -2 1 1 0 0 0 -1 -1 -1 -1 -2 -1 -1 -2 -2 -1 -1 -1 -1 -1 -2 -3 -2 -1
87 11 100 70 -13 0 -3 -2 1 1 2 5 1 2 4 3 2 -1 -0 0 -1 2 0 1 1 -1 -1 -3 -3 -3 -2 -1 -1 -1 -2 -1 -1 -2 -1 -1 -1 -1 0
5 9 13 54 25 -5 5 3 0 3 1 2 1 1 2 3 2 1 1 1 -1 3 -1 -0 -2 -0 -2 -1 -1 -2 -2 -3 -2 -3 -2 -1 -0 -1 -2 -2 -2 -1 -1
-9 2 -4 57 43 13 2 11 2 -5 3 2 1 4 1 1 1 0 0 1 1 -2 -3 1 -2 -2 -3 -1 -0 -1 -2 -1 0 -2 -1 -1 -3 -0 -1 -1 -1 -3 -2
-6 1 6 7 29 37 49 13 5 -2 -11 1 4 0 0 -2 1 2 1 -2 -1 -1 -2 0 -2 -3 -3 -2 -2 -0 -2 -1 -0 -2 -2 -2 -2 -1 0 3 -0 -3 -3
3 6 -11 -4 -7 -5 15 12 -3 4 1 1 -2 -4 -1 -1 -2 -1 2 1 -1 -1 0 -1 -1 0 -2 -0 -2 -1 -1 -1 -1 -3 -3 -1 -3 -3 -2 -0 0 -1 -1
-2 -2 -4 -8 -4 -20 -3 11 9 -2 8 2 -7 -7 -2 1 1 2 2 -2 0 1 -3 -1 -2 -1 1 0 -1 -2 -1 -1 0 -1 -2 -2 -5 -1 -0 -2 -1 -1 -1
-1 1 -4 4 -1 -9 -10 2 4 8 3 -1 2 3 0 -3 -2 -1 0 -2 -0 -5 -1 2 -1 2 -1 -1 -3 -2 -2 -2 1 1 -0 -1 -2 -6 -2 0 -4 -4 -1
Height
5849 5851 5853 5854 5855 5857 5859 5861 5864 5866 5868 5870 5871 5873 5874 5875 5876 5878 5879 5879 5880 5880 5879 5879 5879 5879 5879 5879 5879 5879 5880 5880 5879 5878 5877 5876 5875 5875 5874 5873 5871 5870 5869
5846 5847 5850 5851 5853 5855 5857 5859 5862 5864 5867 5868 5870 5871 5873 5874 5876 5877 5878 5879 5879 5879 5879 5879 5879 5879 5878 5878 5879 5879 5879 5879 5879 5878 5877 5876 5875 5874 5873 5872 5871 5871 5870
5842 5844 5846 5848 5850 5852 5855 5857 5860 5863 5865 5867 5868 5870 5871 5873 5875 5876 5877 5878 5878 5878 5878 5878 5878 5878 5878 5877 5878 5878 5878 5878 5879 5878 5877 5876 5875 5874 5874 5872 5872 5871 5870
5837 5841 5842 5845 5847 5849 5852 5854 5857 5861 5863 5865 5867 5869 5870 5872 5873 5875 5876 5876 5877 5877 5877 5878 5878 5877 5877 5877 5877 5877 5877 5878 5878 5878 5877 5876 5875 5875 5874 5873 5872 5872 5870
5833 5836 5838 5841 5843 5846 5849 5852 5855 5859 5861 5863 5865 5867 5869 5870 5872 5873 5874 5875 5876 5876 5877 5877 5877 5877 5877 5877 5877 5877 5877 5877 5877 5877 5877 5877 5876 5875 5874 5874 5873 5872 5870
5828 5831 5834 5837 5839 5843 5846 5849 5852 5856 5859 5861 5863 5865 5867 5869 5871 5872 5873 5874 5875 5876 5876 5876 5876 5876 5876 5876 5876 5876 5876 5876 5877 5877 5877 5876 5875 5875 5875 5874 5873 5871 5870
5821 5825 5828 5832 5835 5838 5842 5846 5849 5853 5856 5859 5861 5863 5865 5867 5869 5870 5871 5873 5873 5874 5874 5875 5875 5875 5875 5875 5875 5875 5875 5875 5876 5876 5876 5876 5875 5875 5874 5873 5872 5871 5869
5814 5818 5822 5826 5830 5834 5838 5842 5846 5850 5853 5856 5859 5861 5863 5865 5867 5868 5870 5871 5872 5872 5873 5874 5874 5874 5874 5874 5874 5874 5874 5874 5874 5875 5875 5874 5874 5873 5873 5872 5871 5870 5868
5808 5813 5816 5820 5825 5829 5833 5837 5842 5846 5850 5853 5855 5858 5860 5862 5864 5866 5868 5869 5870 5871 5871 5872 5872 5872 5872 5873 5873 5873 5872 5871 5872 5872 5872 5872 5872 5872 5871 5870 5869 5868 5866
5801 5807 5811 5815 5819 5824 5828 5832 5837 5842 5846 5849 5852 5855 5857 5859 5862 5863 5865 5867 5868 5869 5869 5870 5870 5870 5871 5871 5871 5872 5871 5870 5870 5870 5871 5871 5871 5870 5869 5867 5866 5865 5863
5794 5801 5805 5809 5814 5818 5822 5827 5831 5837 5841 5845 5848 5851 5854 5856 5858 5860 5862 5864 5866 5866 5867 5867 5868 5868 5868 5869 5869 5870 5870 5869 5869 5869 5869 5869 5868 5867 5866 5865 5863 5862 5860
5787 5793 5798 5803 5808 5813 5817 5822 5826 5831 5836 5840 5843 5846 5850 5853 5855 5857 5859 5861 5863 5864 5864 5865 5866 5866 5867 5867 5867 5868 5868 5868 5868 5867 5867 5866 5865 5864 5863 5862 5860 5858 5855
5780 5785 5790 5795 5800 5806 5811 5816 5820 5825 5830 5835 5839 5842 5845 5849 5851 5853 5856 5858 5860 5861 5862 5862 5863 5864 5864 5864 5865 5865 5866 5866 5865 5864 5864 5863 5862 5861 5859 5858 5856 5853 5852
5768 5775 5781 5787 5793 5798 5804 5809 5814 5819 5824 5829 5833 5836 5840 5844 5847 5849 5852 5854 5856 5858 5859 5860 5860 5861 5861 5862 5862 5862 5862 5862 5861 5861 5860 5859 5858 5857 5855 5853 5851 5850 5848
5757 5766 5773 5779 5785 5790 5796 5802 5807 5813 5818 5822 5827 5831 5835 5839 5842 5844 5847 5850 5852 5854 5855 5856 5857 5857 5858 5859 5859 5859 5858 5858 5857 5857 5856 5854 5853 5852 5851 5849 5847 5846 5844
5742 5754 5764 5772 5777 5783 5788 5793 5799 5805 5811 5815 5820 5825 5829 5833 5836 5840 5843 5846 5848 5849 5851 5852 5852 5853 5853 5854 5854 5855 5854 5853 5852 5851 5850 5849 5848 5847 5846 5844 5843 5841 5839
5726 5744 5755 5764 5770 5775 5780 5785 5791 5797 5802 5808 5813 5817 5822 5827 5831 5834 5837 5840 5843 5844 5846 5847 5848 5848 5848 5849 5849 5849 5849 5848 5847 5847 5846 5844 5843 5842 5841 5839 5838 5836 5834
5729 5736 5745 5753 5760 5767 5772 5777 5783 5789 5795 5800 5805 5810 5815 5820 5824 5828 5832 5835 5837 5839 5840 5842 5842 5843 5843 5843 5843 5843 5843 5842 5841 5840 5840 5838 5837 5836 5834 5833 5832 5830 5829
5721 5730 5736 5742 5750 5757 5763 5769 5774 5779 5785 5792 5798 5803 5808 5813 5817 5822 5826 5829 5831 5833 5835 5836 5837 5837 5837 5837 5837 5837 5836 5835 5834 5833 5832 5830 5829 5829 5828 5826 5825 5823 5820
5697 5715 5718 5719 5738 5744 5751 5758 5765 5771 5778 5785 5791 5796 5800 5805 5810 5815 5818 5822 5825 5827 5828 5829 5830 5831 5831 5830 5830 5829 5828 5827 5825 5824 5823 5821 5820 5819 5818 5818 5817 5816 5813
5691 5702 5707 5716 5725 5734 5741 5747 5754 5762 5771 5778 5784 5789 5793 5798 5803 5807 5811 5815 5818 5819 5821 5822 5823 5824 5823 5823 5822 5821 5819 5818 5817 5814 5813 5811 5811 5809 5809 5808 5807 5805 5803
5688 5690 5697 5704 5710 5718 5726 5737 5744 5748 5756 5764 5771 5778 5784 5789 5795 5799 5803 5806 5809 5810 5813 5814 5815 5815 5816 5815 5814 5813 5811 5809 5807 5805 5803 5802 5802 5801 5799 5798 5797 5796 5794
5680 5687 5687 5690 5699 5706 5713 5725 5733 5739 5744 5750 5760 5770 5776 5780 5784 5789 5793 5796 5799 5801 5803 5806 5807 5807 5807 5806 5805 5804 5802 5800 5797 5795 5793 5792 5792 5791 5790 5789 5788 5786 5784
5673 5678 5680 5680 5686 5698 5704 5715 5722 5732 5739 5747 5753 5759 5764 5769 5773 5778 5782 5785 5788 5791 5794 5797 5798 5798 5798 5797 5796 5794 5793 5791 5789 5787 5785 5784 5783 5782 5781 5780 5777 5776 5774
5664 5669 5675 5680 5683 5693 5696 5710 5716 5723 5731 5737 5742 5747 5753 5758 5762 5766 5771 5775 5778 5781 5783 5786 5788 5789 5788 5788 5788 5786 5783 5783 5781 5779 5779 5777 5775 5773 5772 5770 5768 5765 5764
5657 5662 5668 5673 5677 5684 5692 5701 5709 5717 5721 5726 5733 5739 5743 5749 5752 5757 5762 5766 5768 5771 5774 5777 5778 5779 5779 5778 5778 5776 5774 5774 5771 5770 5768 5767 5765 5761 5760 5758 5757 5754 5751